QPF
0.00 0.00 0.00 0.00 0.00 0.00 0.00 0.00 0.00 0.00 0.00 0.00 0.00 0.00 0.00 0.00 0.00 0.00 0.00 0.00 0.00 0.00 0.00 0.00 0.00 0.00 0.00 0.00 0.00 0.00 0.00 0.00 0.00 0.00 0.00 0.00 0.00 0.00 0.00 0.00 0.00 0.00 0.00
0.00 0.00 0.00 0.00 0.00 0.00 0.00 0.00 0.00 0.00 0.00 0.00 0.00 0.00 0.00 0.00 0.00 0.00 0.00 0.00 0.00 0.00 0.00 0.00 0.00 0.00 0.00 0.00 0.00 0.00 0.00 0.00 0.00 0.00 0.00 0.00 0.00 0.00 0.00 0.00 0.00 0.00 0.00
0.00 0.00 0.00 0.00 0.00 0.00 0.00 0.00 0.00 0.00 0.00 0.00 0.00 0.00 0.00 0.00 0.00 0.00 0.00 0.00 0.00 0.00 0.00 0.00 0.00 0.00 0.00 0.00 0.00 0.00 0.00 0.00 0.00 0.00 0.00 0.00 0.00 0.00 0.00 0.00 0.00 0.00 0.00
0.00 0.00 0.00 0.00 0.00 0.00 0.00 0.00 0.00 0.00 0.00 0.00 0.00 0.00 0.00 0.00 0.00 0.00 0.00 0.00 0.00 0.00 0.00 0.00 0.00 0.00 0.00 0.00 0.00 0.00 0.00 0.00 0.01 0.01 0.00 0.00 0.00 0.00 0.00 0.00 0.00 0.00 0.00
0.00 0.00 0.00 0.00 0.00 0.00 0.00 0.00 0.00 0.00 0.00 0.00 0.00 0.00 0.00 0.00 0.00 0.00 0.00 0.00 0.00 0.00 0.00 0.00 0.00 0.00 0.00 0.00 0.00 0.00 0.00 0.01 0.01 0.01 0.01 0.00 0.00 0.01 0.01 0.00 0.01 0.01 0.00
0.00 0.00 0.00 0.00 0.00 0.00 0.00 0.00 0.00 0.00 0.00 0.00 0.00 0.00 0.00 0.00 0.00 0.00 0.00 0.00 0.00 0.00 0.00 0.00 0.00 0.00 0.00 0.00 0.01 0.01 0.01 0.01 0.01 0.01 0.01 0.00 0.00 0.00 0.00 0.01 0.02 0.02 0.01
0.00 0.00 0.00 0.00 0.00 0.00 0.00 0.00 0.00 0.00 0.00 0.00 0.00 0.00 0.00 0.00 0.00 0.00 0.00 0.00 0.00 0.00 0.00 0.00 0.00 0.00 0.00 0.00 0.00 0.01 0.01 0.02 0.03 0.03 0.03 0.01 0.00 0.00 0.01 0.02 0.02 0.01 0.00
0.00 0.00 0.00 0.00 0.00 0.00 0.00 0.00 0.00 0.00 0.00 0.00 0.00 0.00 0.00 0.00 0.00 0.00 0.00 0.00 0.00 0.00 0.00 0.00 0.00 0.00 0.00 0.00 0.00 0.00 0.00 0.01 0.01 0.04 0.06 0.04 0.02 0.01 0.01 0.02 0.02 0.03 0.02
0.00 0.00 0.00 0.00 0.00 0.00 0.00 0.00 0.00 0.00 0.00 0.00 0.00 0.00 0.00 0.00 0.00 0.00 0.00 0.00 0.00 0.00 0.00 0.00 0.00 0.00 0.00 0.01 0.01 0.01 0.01 0.00 0.00 0.02 0.04 0.06 0.06 0.05 0.04 0.06 0.08 0.08 0.05
0.00 0.00 0.00 0.00 0.00 0.00 0.00 0.00 0.00 0.00 0.00 0.00 0.00 0.00 0.00 0.00 0.00 0.00 0.01 0.01 0.00 0.00 0.00 0.00 0.00 0.00 0.01 0.01 0.01 0.02 0.02 0.01 0.01 0.01 0.02 0.04 0.06 0.09 0.12 0.15 0.12 0.08 0.05
0.00 0.00 0.00 0.00 0.00 0.00 0.00 0.00 0.00 0.00 0.00 0.00 0.00 0.00 0.00 0.00 0.00 0.00 0.01 0.01 0.01 0.01 0.01 0.00 0.00 0.00 0.01 0.02 0.02 0.02 0.02 0.02 0.02 0.01 0.01 0.01 0.02 0.04 0.05 0.10 0.15 0.11 0.06
0.00 0.00 0.00 0.00 0.00 0.00 0.00 0.00 0.00 0.00 0.00 0.00 0.00 0.00 0.00 0.00 0.00 0.00 0.01 0.02 0.03 0.02 0.02 0.01 0.00 0.01 0.01 0.02 0.02 0.03 0.04 0.05 0.06 0.05 0.03 0.02 0.01 0.01 0.01 0.02 0.04 0.06 0.05
0.00 0.00 0.00 0.00 0.00 0.00 0.00 0.00 0.00 0.00 0.00 0.00 0.00 0.00 0.00 0.00 0.00 0.01 0.01 0.02 0.02 0.02 0.02 0.02 0.02 0.02 0.02 0.02 0.02 0.03 0.04 0.05 0.08 0.08 0.05 0.02 0.01 0.01 0.01 0.02 0.02 0.03 0.04
0.00 0.00 0.00 0.00 0.00 0.00 0.00 0.00 0.00 0.00 0.00 0.01 0.01 0.01 0.01 0.01 0.01 0.01 0.01 0.02 0.02 0.02 0.02 0.02 0.02 0.02 0.02 0.01 0.02 0.02 0.03 0.04 0.06 0.06 0.04 0.02 0.02 0.02 0.03 0.02 0.03 0.03 0.04
0.00 0.00 0.00 0.00 0.00 0.00 0.00 0.00 0.00 0.00 0.00 0.01 0.02 0.02 0.03 0.03 0.02 0.03 0.04 0.04 0.04 0.04 0.04 0.04 0.02 0.02 0.01 0.01 0.02 0.02 0.02 0.03 0.04 0.05 0.05 0.05 0.04 0.03 0.02 0.02 0.03 0.03 0.03
0.00 0.00 0.00 0.00 0.00 0.00 0.00 0.00 0.00 0.00 0.00 0.01 0.02 0.02 0.02 0.03 0.03 0.04 0.04 0.04 0.05 0.05 0.06 0.05 0.03 0.02 0.02 0.02 0.01 0.02 0.02 0.02 0.02 0.03 0.04 0.04 0.04 0.03 0.02 0.02 0.02 0.02 0.02
0.00 0.00 0.00 0.00 0.00 0.00 0.00 0.00 0.01 0.00 0.00 0.01 0.01 0.01 0.02 0.02 0.02 0.03 0.03 0.04 0.04 0.04 0.04 0.04 0.03 0.02 0.02 0.02 0.02 0.01 0.01 0.01 0.02 0.03 0.03 0.03 0.02 0.03 0.03 0.02 0.02 0.02 0.01
0.00 0.00 0.00 0.00 0.00 0.00 0.00 0.01 0.01 0.02 0.02 0.01 0.00 0.00 0.01 0.01 0.02 0.02 0.03 0.03 0.02 0.01 0.02 0.02 0.02 0.02 0.02 0.02 0.02 0.01 0.01 0.02 0.03 0.03 0.03 0.02 0.02 0.02 0.02 0.02 0.01 0.01 0.01
0.00 0.00 0.00 0.00 0.00 0.00 0.00 0.01 0.01 0.02 0.02 0.01 0.00 0.00 0.01 0.01 0.01 0.01 0.02 0.03 0.03 0.02 0.02 0.02 0.02 0.02 0.02 0.02 0.02 0.02 0.02 0.02 0.02 0.02 0.02 0.02 0.02 0.02 0.02 0.01 0.01 0.01 0.02
0.00 0.00 0.00 0.00 0.00 0.00 0.01 0.01 0.02 0.02 0.02 0.01 0.01 0.01 0.01 0.03 0.02 0.01 0.01 0.02 0.02 0.02 0.02 0.02 0.02 0.02 0.02 0.02 0.02 0.02 0.02 0.01 0.01 0.01 0.01 0.01 0.01 0.02 0.01 0.01 0.01 0.01 0.01
0.00 0.00 0.00 0.00 0.01 0.01 0.02 0.02 0.03 0.03 0.02 0.02 0.02 0.01 0.03 0.05 0.04 0.02 0.02 0.02 0.02 0.03 0.02 0.02 0.02 0.02 0.02 0.02 0.02 0.01 0.01 0.01 0.01 0.01 0.01 0.01 0.01 0.01 0.01 0.01 0.01 0.01 0.01
0.00 0.00 0.01 0.01 0.01 0.02 0.02 0.02 0.02 0.03 0.03 0.03 0.02 0.01 0.02 0.02 0.02 0.02 0.02 0.02 0.02 0.02 0.02 0.02 0.02 0.02 0.02 0.02 0.01 0.01 0.01 0.01 0.01 0.01 0.01 0.01 0.01 0.01 0.01 0.01 0.01 0.01 0.02
0.00 0.01 0.01 0.01 0.01 0.01 0.01 0.01 0.02 0.02 0.02 0.03 0.03 0.02 0.02 0.02 0.02 0.02 0.02 0.02 0.02 0.02 0.02 0.03 0.02 0.02 0.02 0.02 0.01 0.01 0.01 0.01 0.00 0.00 0.01 0.01 0.01 0.01 0.01 0.01 0.01 0.02 0.02
0.01 0.01 0.01 0.01 0.01 0.01 0.01 0.01 0.02 0.02 0.02 0.03 0.03 0.02 0.02 0.02 0.02 0.02 0.02 0.02 0.02 0.02 0.02 0.02 0.02 0.02 0.02 0.01 0.01 0.01 0.01 0.01 0.01 0.01 0.01 0.02 0.02 0.01 0.01 0.02 0.02 0.02 0.02
0.01 0.01 0.01 0.01 0.02 0.02 0.02 0.02 0.02 0.02 0.02 0.02 0.02 0.02 0.02 0.02 0.02 0.02 0.02 0.02 0.02 0.02 0.02 0.01 0.01 0.01 0.01 0.01 0.01 0.01 0.01 0.01 0.01 0.01 0.02 0.03 0.02 0.02 0.02 0.02 0.02 0.02 0.02
0.00 0.01 0.01 0.01 0.02 0.02 0.03 0.03 0.03 0.02 0.02 0.02 0.02 0.02 0.02 0.02 0.02 0.02 0.02 0.01 0.02 0.01 0.01 0.01 0.01 0.01 0.01 0.00 0.00 0.00 0.01 0.01 0.01 0.01 0.02 0.03 0.03 0.02 0.02 0.03 0.02 0.02 0.02
MSLP
1018.67 1018.58 1018.45 1018.27 1018.04 1017.77 1017.48 1017.18 1016.88 1016.60 1016.32 1016.04 1015.74 1015.41 1015.05 1014.65 1014.23 1013.81 1013.43 1013.10 1012.84 1012.67 1012.55 1012.49 1012.44 1012.39 1012.31 1012.20 1012.05 1011.90 1011.75 1011.63 1011.56 1011.55 1011.58 1011.66 1011.75 1011.84 1011.92 1011.98 1012.03 1012.08 1012.16
1018.70 1018.56 1018.39 1018.16 1017.89 1017.57 1017.23 1016.89 1016.55 1016.23 1015.91 1015.59 1015.25 1014.88 1014.47 1014.03 1013.56 1013.08 1012.64 1012.23 1011.89 1011.62 1011.41 1011.24 1011.11 1010.98 1010.84 1010.70 1010.56 1010.43 1010.34 1010.29 1010.30 1010.38 1010.50 1010.66 1010.83 1010.99 1011.12 1011.23 1011.31 1011.39 1011.48
1018.72 1018.55 1018.33 1018.05 1017.72 1017.34 1016.94 1016.54 1016.14 1015.76 1015.38 1015.01 1014.62 1014.21 1013.76 1013.28 1012.79 1012.28 1011.79 1011.34 1010.94 1010.59 1010.29 1010.04 1009.81 1009.60 1009.41 1009.23 1009.08 1008.97 1008.92 1008.94 1009.04 1009.20 1009.42 1009.67 1009.93 1010.16 1010.36 1010.52 1010.64 1010.75 1010.85
1018.73 1018.52 1018.24 1017.90 1017.50 1017.06 1016.59 1016.11 1015.63 1015.17 1014.72 1014.28 1013.84 1013.38 1012.90 1012.40 1011.88 1011.36 1010.86 1010.38 1009.95 1009.55 1009.19 1008.87 1008.57 1008.30 1008.05 1007.84 1007.67 1007.57 1007.55 1007.63 1007.79 1008.03 1008.33 1008.67 1009.00 1009.31 1009.57 1009.78 1009.95 1010.08 1010.20
1018.71 1018.44 1018.11 1017.70 1017.23 1016.71 1016.15 1015.59 1015.03 1014.49 1013.96 1013.45 1012.94 1012.43 1011.91 1011.39 1010.86 1010.34 1009.84 1009.36 1008.91 1008.49 1008.11 1007.75 1007.40 1007.09 1006.80 1006.55 1006.37 1006.27 1006.27 1006.37 1006.58 1006.87 1007.23 1007.62 1008.01 1008.37 1008.69 1008.95 1009.16 1009.33 1009.47
1018.62 1018.29 1017.89 1017.41 1016.87 1016.28 1015.65 1015.01 1014.37 1013.75 1013.15 1012.56 1011.99 1011.42 1010.86 1010.31 1009.77 1009.24 1008.75 1008.28 1007.84 1007.43 1007.04 1006.67 1006.31 1005.98 1005.67 1005.41 1005.21 1005.11 1005.10 1005.20 1005.42 1005.72 1006.10 1006.51 1006.93 1007.33 1007.69 1007.99 1008.24 1008.45 1008.63
1018.43 1018.04 1017.57 1017.03 1016.42 1015.77 1015.08 1014.39 1013.70 1013.01 1012.34 1011.69 1011.05 1010.43 1009.82 1009.23 1008.66 1008.13 1007.63 1007.17 1006.75 1006.36 1005.99 1005.64 1005.29 1004.96 1004.66 1004.39 1004.19 1004.06 1004.04 1004.12 1004.31 1004.59 1004.95 1005.35 1005.77 1006.19 1006.57 1006.91 1007.21 1007.46 1007.69
1018.10 1017.65 1017.12 1016.53 1015.88 1015.19 1014.48 1013.76 1013.03 1012.32 1011.60 1010.90 1010.20 1009.52 1008.86 1008.22 1007.62 1007.06 1006.55 1006.09 1005.68 1005.32 1004.98 1004.65 1004.34 1004.04 1003.75 1003.49 1003.28 1003.14 1003.08 1003.12 1003.26 1003.49 1003.80 1004.17 1004.57 1004.97 1005.37 1005.74 1006.09 1006.40 1006.69
1017.63 1017.12 1016.55 1015.93 1015.26 1014.57 1013.86 1013.14 1012.42 1011.69 1010.96 1010.22 1009.48 1008.74 1008.02 1007.32 1006.67 1006.06 1005.53 1005.06 1004.65 1004.30 1003.99 1003.71 1003.44 1003.18 1002.92 1002.68 1002.47 1002.31 1002.21 1002.20 1002.27 1002.43 1002.68 1002.99 1003.36 1003.75 1004.16 1004.56 1004.96 1005.34 1005.69
1017.05 1016.50 1015.90 1015.26 1014.59 1013.92 1013.24 1012.55 1011.85 1011.14 1010.40 1009.65 1008.87 1008.08 1007.30 1006.54 1005.81 1005.16 1004.58 1004.08 1003.67 1003.33 1003.05 1002.80 1002.58 1002.36 1002.14 1001.93 1001.72 1001.55 1001.42 1001.35 1001.36 1001.46 1001.64 1001.90 1002.22 1002.60 1003.02 1003.46 1003.90 1004.35 1004.77
1016.41 1015.82 1015.20 1014.56 1013.91 1013.27 1012.63 1011.98 1011.32 1010.63 1009.90 1009.14 1008.33 1007.50 1006.65 1005.82 1005.03 1004.31 1003.68 1003.15 1002.72 1002.39 1002.13 1001.92 1001.74 1001.57 1001.40 1001.21 1001.03 1000.85 1000.69 1000.59 1000.55 1000.58 1000.71 1000.92 1001.22 1001.59 1002.02 1002.50 1002.99 1003.49 1003.98
1015.77 1015.15 1014.52 1013.88 1013.25 1012.63 1012.02 1011.41 1010.78 1010.11 1009.40 1008.62 1007.79 1006.91 1006.02 1005.12 1004.27 1003.49 1002.81 1002.25 1001.80 1001.47 1001.23 1001.06 1000.92 1000.80 1000.67 1000.52 1000.36 1000.20 1000.04 999.91 999.84 999.85 999.94 1000.13 1000.41 1000.78 1001.23 1001.73 1002.26 1002.81 1003.33
1015.17 1014.54 1013.89 1013.25 1012.63 1012.03 1011.43 1010.84 1010.22 1009.56 1008.84 1008.04 1007.19 1006.27 1005.33 1004.39 1003.48 1002.66 1001.94 1001.35 1000.90 1000.57 1000.34 1000.20 1000.11 1000.03 999.96 999.86 999.73 999.59 999.46 999.34 999.26 999.26 999.34 999.53 999.81 1000.19 1000.65 1001.17 1001.73 1002.29 1002.83
1014.66 1014.01 1013.35 1012.69 1012.06 1011.45 1010.84 1010.24 1009.60 1008.92 1008.18 1007.36 1006.48 1005.53 1004.55 1003.58 1002.65 1001.80 1001.06 1000.46 1000.00 999.68 999.48 999.37 999.32 999.29 999.26 999.21 999.14 999.05 998.95 998.86 998.81 998.83 998.92 999.12 999.42 999.81 1000.27 1000.80 1001.35 1001.90 1002.42
1014.23 1013.56 1012.88 1012.20 1011.54 1010.90 1010.25 1009.61 1008.93 1008.21 1007.43 1006.58 1005.66 1004.69 1003.70 1002.71 1001.77 1000.92 1000.18 999.58 999.14 998.84 998.66 998.57 998.56 998.57 998.60 998.60 998.59 998.55 998.51 998.47 998.48 998.53 998.66 998.88 999.20 999.59 1000.05 1000.56 1001.08 1001.59 1002.05
1013.83 1013.16 1012.46 1011.76 1011.05 1010.36 1009.66 1008.96 1008.22 1007.45 1006.62 1005.73 1004.79 1003.81 1002.81 1001.83 1000.90 1000.07 999.35 998.77 998.35 998.07 997.91 997.85 997.86 997.92 997.98 998.04 998.09 998.12 998.14 998.17 998.23 998.35 998.52 998.77 999.09 999.48 999.91 1000.38 1000.84 1001.27 1001.65
1013.42 1012.74 1012.03 1011.31 1010.57 1009.82 1009.07 1008.30 1007.50 1006.67 1005.80 1004.88 1003.93 1002.94 1001.96 1001.01 1000.11 999.31 998.63 998.08 997.68 997.41 997.27 997.23 997.26 997.34 997.44 997.55 997.65 997.74 997.83 997.94 998.07 998.23 998.45 998.72 999.05 999.41 999.80 1000.20 1000.57 1000.90 1001.17
1012.94 1012.27 1011.56 1010.82 1010.06 1009.28 1008.47 1007.66 1006.81 1005.94 1005.04 1004.10 1003.15 1002.18 1001.23 1000.31 999.47 998.71 998.06 997.55 997.17 996.92 996.79 996.75 996.79 996.88 997.00 997.14 997.28 997.43 997.58 997.75 997.94 998.16 998.41 998.69 999.00 999.33 999.65 999.96 1000.23 1000.44 1000.58
1012.35 1011.71 1011.02 1010.29 1009.52 1008.72 1007.90 1007.05 1006.18 1005.29 1004.38 1003.44 1002.51 1001.57 1000.66 999.80 999.00 998.30 997.70 997.22 996.86 996.61 996.47 996.43 996.46 996.55 996.67 996.82 996.99 997.18 997.38 997.60 997.83 998.08 998.35 998.64 998.92 999.19 999.44 999.65 999.80 999.89 999.90
1011.65 1011.05 1010.40 1009.70 1008.95 1008.16 1007.35 1006.50 1005.63 1004.74 1003.84 1002.93 1002.03 1001.14 1000.28 999.48 998.74 998.09 997.53 997.08 996.73 996.49 996.34 996.28 996.28 996.35 996.46 996.61 996.79 997.00 997.23 997.47 997.73 998.00 998.28 998.54 998.78 998.99 999.15 999.26 999.29 999.26 999.14
1010.87 1010.33 1009.73 1009.08 1008.37 1007.62 1006.83 1006.01 1005.16 1004.30 1003.42 1002.55 1001.69 1000.85 1000.06 999.32 998.64 998.04 997.52 997.10 996.77 996.52 996.36 996.27 996.25 996.29 996.38 996.51 996.68 996.89 997.12 997.37 997.63 997.90 998.16 998.39 998.58 998.72 998.80 998.80 998.73 998.59 998.36
1010.07 1009.59 1009.05 1008.46 1007.81 1007.11 1006.36 1005.57 1004.76 1003.93 1003.09 1002.26 1001.45 1000.67 999.94 999.26 998.64 998.09 997.63 997.23 996.92 996.67 996.50 996.39 996.34 996.34 996.40 996.50 996.64 996.83 997.04 997.28 997.52 997.77 997.99 998.18 998.32 998.39 998.39 998.31 998.15 997.91 997.60
1009.31 1008.89 1008.41 1007.88 1007.29 1006.64 1005.93 1005.19 1004.41 1003.61 1002.81 1002.02 1001.26 1000.53 999.85 999.23 998.68 998.19 997.77 997.42 997.13 996.90 996.72 996.59 996.52 996.49 996.50 996.57 996.67 996.82 996.99 997.19 997.40 997.61 997.79 997.93 998.01 998.02 997.95 997.80 997.56 997.25 996.87
1008.61 1008.25 1007.84 1007.36 1006.82 1006.21 1005.55 1004.83 1004.08 1003.31 1002.54 1001.78 1001.05 1000.37 999.74 999.18 998.68 998.26 997.89 997.59 997.34 997.13 996.97 996.84 996.74 996.68 996.66 996.68 996.74 996.83 996.95 997.10 997.26 997.41 997.54 997.63 997.66 997.61 997.49 997.28 996.99 996.63 996.20
1008.00 1007.69 1007.33 1006.90 1006.40 1005.83 1005.19 1004.50 1003.76 1003.00 1002.25 1001.51 1000.81 1000.16 999.58 999.08 998.64 998.28 997.97 997.72 997.52 997.35 997.21 997.08 996.98 996.90 996.84 996.81 996.81 996.84 996.90 996.99 997.08 997.17 997.25 997.29 997.27 997.18 997.02 996.77 996.44 996.03 995.56
1007.46 1007.19 1006.87 1006.48 1006.01 1005.47 1004.85 1004.16 1003.43 1002.68 1001.93 1001.20 1000.53 999.91 999.37 998.91 998.54 998.23 998.00 997.81 997.66 997.53 997.41 997.30 997.20 997.09 997.00 996.92 996.86 996.83 996.82 996.84 996.87 996.90 996.92 996.91 996.85 996.73 996.53 996.26 995.90 995.47 994.97
Thickness
5568 5565 5562 5559 5556 5552 5549 5545 5542 5539 5535 5531 5527 5523 5518 5514 5509 5504 5500 5496 5491 5488 5483 5478 5475 5468 5463 5458 5452 5447 5443 5439 5447 5471 5458 5452 5446 5444 5442 5440 5437 5436 5435
5556 5553 5550 5546 5543 5539 5536 5532 5528 5524 5520 5516 5511 5506 5502 5498 5492 5487 5483 5479 5475 5472 5468 5462 5460 5453 5450 5445 5440 5437 5434 5430 5430 5446 5446 5436 5433 5430 5427 5425 5424 5423 5421
5545 5540 5537 5533 5530 5526 5522 5518 5514 5509 5504 5499 5494 5489 5484 5479 5474 5469 5464 5461 5457 5454 5450 5446 5443 5436 5435 5431 5427 5426 5423 5420 5419 5424 5433 5424 5420 5416 5412 5411 5410 5409 5408
5532 5527 5523 5519 5515 5511 5507 5502 5497 5492 5487 5482 5477 5471 5466 5460 5455 5449 5444 5441 5438 5435 5431 5428 5425 5421 5419 5417 5414 5413 5410 5407 5406 5408 5415 5412 5406 5402 5397 5397 5394 5393 5393
5518 5513 5509 5505 5500 5495 5490 5485 5480 5475 5469 5464 5458 5453 5447 5440 5435 5429 5425 5422 5419 5417 5415 5411 5409 5406 5405 5403 5401 5400 5396 5395 5395 5395 5400 5398 5396 5388 5387 5384 5383 5381 5380
5504 5499 5495 5490 5485 5479 5474 5469 5463 5458 5452 5445 5439 5433 5429 5423 5418 5414 5410 5408 5406 5403 5401 5399 5395 5393 5393 5394 5395 5394 5390 5385 5386 5386 5388 5389 5388 5382 5376 5371 5368 5365 5366
5490 5485 5480 5474 5468 5463 5457 5451 5445 5440 5434 5428 5421 5415 5411 5407 5401 5399 5397 5395 5394 5391 5389 5387 5385 5384 5383 5381 5382 5385 5386 5386 5384 5379 5380 5381 5377 5372 5365 5360 5357 5356 5357
5474 5469 5463 5457 5451 5446 5440 5433 5428 5422 5416 5410 5405 5399 5395 5393 5388 5387 5385 5384 5383 5381 5378 5375 5374 5374 5372 5370 5370 5371 5372 5372 5372 5372 5373 5371 5366 5361 5356 5352 5349 5345 5343
5460 5454 5447 5440 5434 5429 5423 5417 5410 5404 5401 5394 5390 5385 5382 5382 5378 5376 5375 5374 5373 5371 5369 5367 5365 5365 5366 5365 5364 5363 5363 5363 5362 5363 5363 5361 5358 5353 5347 5340 5336 5332 5333
5446 5440 5432 5423 5416 5411 5406 5400 5394 5387 5384 5381 5378 5374 5371 5370 5369 5368 5366 5365 5364 5364 5364 5361 5361 5360 5360 5360 5358 5357 5357 5357 5353 5351 5351 5351 5348 5345 5342 5336 5330 5325 5323
5431 5424 5416 5408 5400 5394 5389 5384 5377 5373 5371 5369 5368 5367 5364 5362 5362 5361 5359 5357 5357 5358 5358 5356 5354 5354 5355 5355 5354 5352 5352 5350 5347 5344 5341 5338 5335 5332 5329 5326 5322 5317 5313
5417 5410 5402 5394 5385 5380 5374 5370 5365 5360 5359 5360 5360 5361 5359 5357 5356 5355 5354 5354 5354 5353 5352 5351 5350 5350 5350 5350 5349 5348 5347 5345 5341 5337 5334 5330 5326 5322 5318 5314 5310 5306 5303
5402 5395 5388 5382 5374 5366 5360 5358 5356 5352 5350 5351 5351 5353 5355 5354 5351 5351 5351 5350 5350 5348 5348 5348 5348 5348 5347 5345 5343 5342 5339 5336 5333 5330 5327 5323 5319 5314 5308 5303 5298 5294 5290
5387 5381 5375 5369 5365 5359 5352 5348 5346 5344 5343 5343 5344 5347 5349 5350 5348 5347 5346 5345 5345 5344 5343 5344 5344 5343 5340 5338 5337 5333 5329 5326 5324 5322 5319 5314 5308 5302 5297 5292 5287 5282 5277
5373 5368 5363 5357 5353 5351 5348 5343 5340 5340 5335 5337 5340 5341 5342 5346 5346 5345 5344 5344 5343 5343 5343 5341 5338 5335 5332 5329 5327 5323 5320 5317 5315 5312 5308 5303 5298 5293 5288 5282 5277 5271 5266
5360 5356 5351 5347 5345 5342 5341 5343 5341 5337 5337 5336 5336 5337 5339 5340 5342 5343 5342 5342 5342 5342 5340 5337 5334 5330 5327 5324 5321 5317 5313 5309 5306 5302 5298 5293 5289 5284 5278 5272 5266 5261 5257
5346 5343 5341 5339 5336 5334 5333 5334 5338 5340 5336 5335 5334 5334 5334 5336 5337 5338 5338 5339 5339 5337 5333 5330 5327 5324 5321 5318 5314 5310 5306 5302 5297 5292 5288 5283 5278 5273 5268 5262 5257 5251 5247
5338 5335 5333 5331 5328 5327 5327 5326 5327 5329 5333 5334 5333 5331 5331 5332 5333 5334 5334 5333 5332 5329 5325 5323 5321 5318 5315 5311 5307 5303 5299 5294 5288 5284 5279 5274 5268 5263 5259 5254 5249 5244 5240
5331 5328 5326 5325 5324 5323 5322 5322 5322 5323 5324 5326 5328 5329 5328 5328 5329 5329 5328 5324 5323 5323 5320 5318 5315 5312 5308 5304 5300 5296 5291 5286 5281 5276 5271 5265 5260 5255 5251 5246 5242 5239 5235
5325 5324 5322 5321 5320 5319 5318 5318 5318 5319 5319 5320 5321 5322 5323 5323 5324 5324 5321 5319 5318 5316 5314 5312 5309 5306 5302 5297 5293 5288 5284 5279 5274 5268 5263 5258 5253 5248 5244 5239 5235 5231 5228
5319 5318 5318 5316 5314 5314 5314 5313 5314 5314 5315 5316 5317 5317 5319 5319 5319 5317 5316 5314 5312 5311 5309 5306 5303 5300 5296 5291 5286 5282 5277 5273 5267 5261 5256 5251 5247 5242 5238 5234 5230 5226 5223
5313 5312 5312 5311 5310 5310 5310 5310 5309 5309 5310 5311 5314 5314 5315 5313 5312 5311 5310 5309 5307 5304 5302 5300 5297 5294 5290 5286 5281 5277 5272 5267 5261 5255 5251 5246 5241 5237 5233 5229 5226 5222 5219
5308 5308 5308 5307 5306 5307 5307 5305 5305 5306 5306 5308 5308 5309 5309 5308 5308 5307 5306 5304 5301 5299 5297 5294 5292 5288 5285 5281 5276 5272 5267 5263 5258 5252 5247 5242 5237 5234 5230 5227 5223 5219 5217
5305 5304 5303 5302 5302 5302 5302 5302 5302 5302 5303 5304 5304 5305 5305 5304 5303 5302 5301 5299 5297 5295 5292 5289 5286 5283 5279 5276 5271 5267 5263 5258 5253 5249 5244 5239 5236 5232 5229 5225 5222 5219 5216
5300 5299 5298 5297 5297 5297 5298 5299 5299 5299 5300 5301 5301 5302 5301 5300 5300 5299 5297 5295 5292 5290 5288 5285 5282 5279 5276 5272 5268 5263 5260 5256 5252 5247 5242 5238 5234 5231 5227 5224 5222 5219 5216
5295 5294 5293 5292 5293 5293 5293 5294 5295 5296 5297 5297 5298 5297 5297 5297 5296 5295 5293 5290 5288 5286 5284 5281 5278 5275 5271 5268 5264 5261 5258 5255 5251 5247 5242 5237 5233 5230 5226 5224 5221 5219 5216